CAPE
0 0 0 0 0 11 56 8 0 45 138 191 185 0 0 5 45 1546 1613 1488 1290 794 935 1192 2574 2702 2712 2703 2440 2149 1900 1745 1973 1752 1249 1335 1472 1596 1844 2016 2064 1943 1369 1031 1219 1321 1006 617 491
0 0 0 0 0 10 0 0 43 380 206 74 58 39 161 130 0 1912 1722 2005 1469 990 686 942 2508 2630 2539 2559 2205 1964 1891 1895 2045 1797 1363 1444 1641 1639 1724 1910 1955 1685 1447 1176 914 870 855 751 558
0 0 0 0 0 0 0 0 10 136 80 156 13 583 750 1467 2002 2394 2097 2225 1637 1068 1185 1507 2415 2508 2438 2309 2301 2038 1946 1931 2008 1811 1600 1633 1728 1736 1746 1857 1830 1514 1263 1163 951 677 468 342 366
0 0 0 0 0 0 1 0 0 26 0 0 236 1018 1346 1733 2123 2080 2059 2200 1734 1059 1391 1758 2194 2329 2313 2151 2280 2341 2262 2121 1988 1959 1865 1680 1688 1741 1641 1648 1577 1285 1020 886 809 535 254 143 170
0 0 0 0 0 0 0 0 0 3 3 1 160 1430 1627 1833 1965 2036 2079 2044 1468 1732 1397 1113 2122 2129 2101 1995 2043 2224 2336 2322 2288 2154 1933 1796 1713 1628 1555 1459 1366 1259 1034 891 876 810 566 261 173
0 0 0 0 67 23 0 0 0 0 61 33 9 986 983 1564 1765 1759 1492 1517 1414 2526 1023 961 1914 2116 1984 1986 2035 2161 2218 2277 2329 2268 2080 1868 1680 1490 1429 1458 1422 1417 1310 1225 1123 976 675 480 479
0 0 0 1 3 7 0 0 0 0 9 0 0 249 110 1269 1132 1303 1234 1173 1283 1878 1271 903 833 1428 1857 1908 1938 1999 2035 2076 2074 1964 1886 1778 1485 1354 1293 1353 1394 1382 1392 1322 1266 1238 1085 902 664
0 0 0 0 0 13 0 0 0 0 0 0 0 0 0 695 876 801 892 1152 1240 1792 1619 1149 1160 839 831 928 1661 1779 1788 1860 1777 1742 1715 1588 1365 1300 1302 1478 1400 1380 1332 1286 1312 1327 1277 1166 993
0 0 4 2 0 0 0 0 0 0 0 0 0 0 0 0 61 167 464 663 994 1134 2104 1631 1587 1343 986 642 1075 1484 1359 1417 1550 1371 1511 1196 422 599 575 359 724 1606 1515 1543 1564 1546 1515 1437 1316
0 0 3 23 0 8 3 0 0 0 0 0 0 0 0 0 0 0 4 107 807 895 1237 1986 2446 2004 1756 1367 1147 821 556 610 693 490 887 575 219 529 216 482 1412 1435 1691 1786 1802 1789 1749 1589 691
0 10 14 28 0 0 0 0 0 0 0 0 0 0 0 0 0 0 0 0 27 1012 1254 1979 3516 3586 2539 2358 1580 1277 1200 847 759 993 1054 522 828 1574 735 971 560 1451 1521 676 1036 1186 1105 887 1023
0 0 14 0 0 0 0 0 0 0 0 0 0 0 0 0 0 0 0 0 0 31 809 2213 2545 3167 3348 3163 3200 2306 1607 1370 1371 1161 1923 1819 2258 2366 1915 1316 1436 1379 1497 1503 1251 1399 1515 1482 1329
10 0 0 0 0 0 0 0 0 0 0 0 0 0 0 0 0 0 0 0 0 0 42 78 2060 3938 4087 3854 3903 3797 2053 2574 2346 2222 2212 2254 1892 1754 1296 1439 1805 872 831 1018 791 629 1090 833 691
2 0 0 0 0 0 0 0 0 0 0 0 0 0 0 0 0 0 0 0 0 0 105 287 297 3476 3023 3852 4250 3923 4199 3151 3174 1872 1837 1676 1784 2459 2669 1538 2193 2334 2029 1895 1378 1149 1367 1068 606
0 0 0 0 0 0 0 0 0 0 0 0 0 0 0 0 0 0 0 0 0 0 14 304 878 3524 4043 3880 4099 4181 3404 2348 1202 1229 1571 842 2007 2145 2563 2075 1788 802 669 243 584 944 96 12 0
0 0 0 0 0 0 0 0 0 0 0 0 0 0 0 0 0 0 0 0 0 0 161 133 14 3568 4043 4386 4133 3920 3635 2773 2966 3060 2619 1132 1865 2241 2166 1052 470 587 145 54 52 11 0 0 0
0 0 0 0 0 0 0 0 0 0 0 0 0 0 0 0 0 0 0 0 0 1 0 350 1117 3474 3930 4187 4109 4136 3629 3529 2707 2022 1250 1063 1756 797 588 532 415 236 253 150 82 72 30 0 4
0 1 0 0 0 0 0 0 0 0 0 0 0 0 0 0 0 1 0 0 33 73 72 807 1166 3842 3942 3931 4399 3583 3297 3535 1817 1492 1250 1509 815 391 401 615 457 153 175 156 230 181 111 163 66
0 0 0 0 0 0 0 0 0 0 0 0 0 0 0 0 0 0 0 0 0 73 166 740 1374 3601 4076 3857 3442 2921 2201 2981 843 659 940 678 430 371 477 375 307 276 183 549 304 156 42 4 55
0 0 0 0 0 0 0 0 0 0 0 0 0 0 0 0 0 0 0 0 269 854 1246 1170 2428 3324 3315 3405 3384 3284 1571 1516 716 784 840 427 260 158 325 352 252 478 182 224 333 529 43 0 0
0 0 0 0 0 0 0 0 0 0 0 0 0 0 0 0 0 10 58 158 291 729 1329 1788 2381 2829 2660 1781 1982 1930 1151 999 510 617 559 525 89 84 143 90 145 245 220 23 21 0 0 0 13
0 0 0 0 0 0 0 0 0 0 0 0 0 0 0 0 0 0 25 86 242 310 635 1067 1277 1381 1092 1566 2223 1953 1740 1173 1260 832 697 335 66 33 15 17 43 150 90 41 13 0 0 0 0
0 0 0 0 0 0 0 0 0 10 14 9 21 12 3 0 7 43 39 12 50 196 265 418 583 660 670 737 666 482 932 1156 689 615 372 244 250 116 0 0 54 81 43 0 0 1 7 0 0
0 0 0 0 0 0 0 0 0 5 0 39 43 18 22 30 38 101 72 18 30 52 88 315 510 521 525 458 512 689 777 588 414 437 364 295 439 186 185 47 90 53 40 8 0 0 4 5 10
0 0 0 0 0 1 0 0 0 11 0 0 0 29 86 43 48 45 51 61 44 42 91 67 329 255 348 400 406 439 565 667 563 556 447 411 271 226 200 122 73 10 15 0 0 0 0 2 14
0 0 0 0 0 0 0 0 16 63 8 0 0 36 34 1 21 13 7 4 0 9 11 3 119 305 420 434 404 455 553 276 292 625 229 231 132 46 222 58 50 2 0 0 0 0 0 0 10
0 0 0 0 0 0 0 0 39 28 11 0 0 0 0 0 2 3 15 27 6 11 7 0 41 80 194 456 916 706 542 532 417 490 513 126 420 61 52 42 45 3 0 0 0 0 0 5 17
0 0 0 0 0 0 0 0 1 64 48 29 5 4 5 0 0 1 2 0 0 12 0 107 5 21 141 28 133 322 270 502 490 581 491 420 342 270 143 58 18 9 4 0 7 7 10 17 8
0 0 0 1 7 3 1 0 9 59 12 12 0 0 0 0 0 1 0 1 0 0 0 65 126 0 111 27 76 7 109 279 300 327 332 409 399 307 150 81 15 10 9 10 24 25 37 21 23
0 0 0 64 1 10 19 0 0 9 1 8 0 0 0 0 0 0 0 0 0 0 0 0 15 32 89 128 48 108 91 37 140 76 147 230 238 109 157 101 23 18 19 27 36 24 34 28 60
CIN
0 0 0 0 0 -167 -41 -10 0 -9 -1 -4 -52 0 -52 -432 -371 -43 -38 -90 -189 -334 -422 -352 -127 -85 -58 -45 -43 -43 -64 -71 -31 -35 -90 -44 -29 -12 0 0 0 0 -4 -37 -13 -8 -26 -74 -101
0 0 0 0 0 -12 0 -1 0 -4 -14 -7 -186 -209 -296 -277 0 -47 -71 -82 -204 -342 -435 -403 -152 -108 -85 -50 -68 -83 -67 -53 -31 -37 -63 -25 -3 0 0 0 0 0 0 -15 -41 -48 -47 -62 -88
0 0 0 0 0 -1 0 0 0 -23 -49 -7 -10 -20 -5 -12 -16 -48 -94 -117 -211 -301 -313 -341 -166 -141 -119 -103 -71 -84 -69 -39 -23 -26 -27 -14 -4 0 0 0 0 0 -5 -10 -31 -74 -123 -171 -157
0 0 0 0 0 0 -18 0 0 -75 0 0 -13 -28 -36 -12 -43 -72 -78 -121 -208 -273 -288 -310 -209 -171 -139 -134 -85 -43 -29 -23 -24 -11 -5 -7 0 0 0 0 0 -1 -29 -52 -60 -121 -253 -330 -303
0 0 0 0 -3 0 0 0 0 -9 -5 -2 -3 -7 -37 -39 -44 -60 -69 -95 -160 -171 -318 -400 -225 -216 -184 -177 -139 -70 -20 0 0 0 -1 -3 -2 0 0 -1 -3 -7 -27 -42 -53 -66 -113 -250 -319
0 0 0 0 -8 -12 0 0 0 0 -2 -11 -5 -12 -29 -45 -25 -21 -43 -60 -94 -93 -290 -419 -249 -197 -192 -170 -132 -95 -53 -13 0 0 0 0 0 0 0 0 0 0 -1 -3 -13 -31 -96 -152 -149
0 0 0 -4 -10 -22 0 0 0 0 -7 -1 0 -14 -95 -2 -31 -4 -11 -31 -45 -82 -223 -326 -366 -277 -182 -158 -133 -98 -69 -45 -28 -20 -9 -6 -15 -12 -8 0 0 0 0 -1 -2 -3 -22 -50 -100
0 0 0 0 0 -28 0 0 0 0 0 0 0 0 0 -34 -25 -19 -1 0 -6 -11 -125 -190 -237 -316 -327 -321 -150 -113 -92 -63 -50 -40 -26 -27 -47 -41 -34 -17 -16 -13 -16 -21 -19 -19 -21 -31 -49
0 0 -79 -79 -1 0 0 0 0 0 0 0 0 0 0 0 -59 -54 -2 -3 -3 -3 -21 -81 -172 -181 -205 -283 -246 -143 -127 -101 -68 -73 -36 -69 -240 -171 -159 -202 -99 -20 -20 -13 -8 -11 -22 -30 -46
0 0 -49 -87 0 -3 -2 0 0 0 0 0 0 0 0 0 0 -18 -23 -3 -5 -9 -6 -13 -48 -73 -48 -76 -229 -230 -257 -229 -190 -242 -132 -191 -291 -143 -209 -105 -54 -62 -35 -22 -17 -39 -23 -20 -101
0 -18 -60 -63 0 0 -1 0 0 0 0 0 0 0 0 0 0 0 0 0 -1 -8 -41 -23 -19 -10 -6 -93 -147 -109 -109 -131 -133 -75 -76 -170 -42 -18 -26 -75 -88 -41 -39 -70 -53 -77 -74 -57 -44
0 0 -28 0 0 0 0 0 0 0 0 0 0 0 0 0 0 0 0 0 0 -41 -31 -31 -25 -29 -25 -9 -23 -41 -43 -53 -39 -47 -12 -29 -22 -22 -40 -46 -41 -37 -38 -46 -50 -22 -19 -37 -36
-5 0 0 0 0 0 0 0 0 0 0 0 0 0 0 0 0 0 0 0 0 0 -212 -227 -34 -18 -15 -21 -34 -14 -54 -10 -8 -18 -4 -13 -22 -44 -64 -58 -46 -117 -114 -79 -93 -105 -68 -73 -47
-4 0 0 0 0 0 0 0 0 0 0 0 0 0 0 0 0 0 0 0 0 0 -171 -150 -108 -30 -8 -3 -3 -26 -38 -25 -16 -30 -25 -17 -35 -22 -12 -56 -28 -25 -34 -22 -23 -29 -33 -35 -28
0 0 0 0 0 0 0 0 0 0 0 0 0 0 0 0 0 0 0 0 0 0 -262 -85 -39 -29 -20 -5 -3 -1 -12 -45 -161 -36 -80 -24 -28 -40 -24 -34 -15 -67 -91 -79 -42 -23 -54 -4 0
0 0 0 0 0 0 0 0 0 0 0 0 0 0 0 0 0 0 0 0 0 0 -146 -145 -24 -29 -36 -4 -1 -2 -16 -47 -23 -26 -23 -20 -13 -18 -9 -17 -76 -90 -118 -93 -63 -26 0 0 0
0 0 0 0 0 0 0 0 0 0 0 0 0 0 0 0 0 0 0 0 0 -105 -28 -34 -22 -23 -38 -15 -1 -2 -7 -8 -43 -115 -136 -84 -10 -25 -45 -50 -96 -111 -83 -77 -86 -119 -104 0 -20
0 0 0 0 0 0 0 0 0 0 0 0 0 0 0 0 -5 -21 0 0 -217 -169 -134 -49 -43 -34 -20 -24 -5 -8 -9 -9 -29 -37 -52 -28 -47 -110 -109 -34 -60 -95 -101 -111 -104 -95 -119 -81 -75
0 0 0 0 0 0 0 0 0 0 0 0 0 0 0 0 0 0 0 0 0 -155 -102 -66 -43 -20 -15 -1 -6 -9 -16 -14 -74 -93 -53 -55 -79 -103 -57 -84 -77 -90 -110 -49 -72 -110 -90 -63 -74
0 0 0 0 0 0 0 0 0 0 0 0 0 0 0 0 0 0 0 0 -67 -14 -2 -16 -5 -7 -5 -8 -12 -22 -53 -37 -71 -90 -59 -93 -103 -144 -80 -91 -101 -87 -183 -111 -58 -26 -46 0 0
0 0 0 0 0 0 0 0 0 0 0 0 0 0 0 0 0 -73 -90 -54 -34 -22 -1 -1 -3 -3 -9 -38 -49 -67 -99 -88 -68 -87 -53 -57 -134 -124 -109 -134 -119 -94 -100 -151 -146 0 0 0 -36
0 0 0 0 0 0 0 0 0 0 0 0 0 0 0 0 0 0 -53 -34 -24 -34 -25 -7 -6 -8 -13 -36 -3 -13 -7 -22 -17 -37 -29 -80 -117 -136 -150 -153 -152 -124 -143 -162 -127 0 0 0 0
0 0 0 0 0 0 0 0 0 -34 -20 -20 -3 -7 -18 0 -2 -3 -4 -3 -42 -14 -36 -39 -29 -33 -56 -63 -85 -114 -55 -29 -23 -40 -45 -75 -69 -85 -1 -3 -147 -151 -175 0 0 -8 -97 0 0
0 0 0 0 0 0 0 0 0 -6 0 -5 -7 -4 -2 -1 -2 -5 -15 -22 -10 -6 -10 -21 -17 -21 -27 -47 -55 -57 -60 -74 -70 -71 -68 -59 -17 -63 -41 -138 -133 -147 -125 -50 0 0 -8 -8 -6
0 0 0 0 0 -2 0 0 0 -26 0 0 0 -20 -5 -4 -3 -3 -8 -8 -1 -3 -9 -27 -5 -3 -6 -18 -18 -28 -36 -53 -63 -36 -30 -30 -60 -54 -54 -92 -117 -114 -142 0 0 0 0 -6 -7
0 0 0 0 0 -1 0 0 -2 -32 -65 -15 0 -42 -83 -4 -20 -15 -45 -36 0 -41 -56 -84 -20 -3 -1 -4 -6 -5 -2 -40 -36 -6 -44 -59 -87 -113 -22 -72 -101 -20 0 0 0 0 0 0 -8
0 0 0 0 0 0 0 0 -38 -17 -20 0 0 0 0 0 -84 -105 -109 -75 -74 -98 -91 -11 -19 -40 -34 -4 -6 -8 -8 -4 -3 -8 -2 -20 -4 -52 -79 -122 -124 -29 0 0 0 0 0 -12 -11
0 0 0 0 0 0 0 0 -1 -11 -4 -2 -3 -2 -4 0 0 -8 -2 0 -49 -85 -22 -47 -108 -85 -40 -94 -44 -15 -28 -22 -12 -3 -3 -3 -5 -3 -16 -77 -115 -107 -4 -1 -10 -6 -6 -10 -15
0 0 0 -1 -2 -1 0 0 -4 -24 -15 -14 0 0 -1 0 0 -2 -8 -15 0 0 0 -48 -34 0 -24 -88 -53 -71 -57 -27 -20 -8 -4 -5 -5 -6 -4 -53 -69 -2 -4 -7 -9 -9 -6 -9 -17
0 0 0 -1 0 0 -3 0 0 -6 -2 -15 0 0 0 0 0 0 0 0 0 0 0 0 -35 -26 -12 -36 -123 -81 -111 -138 -73 -57 -33 -11 -19 -21 -12 -10 -3 -2 -2 -6 -7 -12 -9 -11 -3
Wind_Speed
17 15 11 10 6 9 10 3 5 11 11 14 27 21 21 21 9 1 6 18 20 17 13 13 14 14 13 14 15 14 13 12 11 11 11 10 10 10 10 10 9 9 10 9 8 7 6 6 6
12 17 9 7 10 8 4 6 10 14 12 10 27 31 23 10 7 9 9 18 19 16 11 12 13 14 14 13 13 13 13 12 12 12 11 10 9 9 10 9 8 8 8 8 7 6 5 5 4
16 14 8 8 13 6 8 15 9 11 3 3 14 19 17 19 13 8 15 18 18 14 13 13 13 14 14 13 13 13 12 12 11 11 11 10 10 9 9 9 7 6 6 6 5 5 4 3 3
8 6 7 10 19 7 9 3 7 4 4 4 20 17 17 17 19 16 18 19 17 15 16 14 14 13 13 13 12 12 12 12 12 11 11 10 9 8 8 8 6 5 4 4 4 4 3 2 2
10 9 12 18 20 13 9 8 8 8 6 8 10 21 18 15 14 14 14 16 17 18 15 14 13 14 14 14 13 11 11 10 10 11 10 10 9 8 8 8 7 6 5 4 3 2 1 1 2
5 7 14 17 14 5 5 4 5 8 6 11 3 21 16 16 14 15 16 16 16 18 15 13 12 12 12 12 12 12 12 11 10 10 9 9 8 8 7 6 6 5 3 2 1 1 1 2 3
11 11 17 20 16 11 5 5 6 9 14 17 12 18 14 16 11 11 14 15 15 20 16 11 11 10 10 10 11 11 11 11 11 10 10 9 9 8 7 6 5 4 2 2 3 3 4 5 6
10 8 19 18 7 7 12 3 6 7 13 5 7 12 12 8 9 11 13 15 16 19 19 16 12 10 9 9 10 10 10 10 9 9 9 9 9 9 9 8 8 7 6 5 5 6 6 7 8
9 13 11 22 25 19 9 5 9 5 6 9 10 14 10 8 3 7 9 10 14 14 18 18 18 15 12 14 11 10 10 9 9 8 8 8 6 8 10 10 9 11 9 7 7 8 9 10 11
5 11 21 17 16 17 14 16 12 6 6 7 11 10 6 5 5 4 6 7 13 11 14 18 16 16 13 12 13 10 9 7 7 8 9 7 8 9 8 9 13 14 11 10 10 13 11 9 7
13 14 22 21 24 17 12 16 20 13 6 7 11 7 10 2 2 6 7 8 4 10 8 14 8 6 6 14 10 7 7 6 6 8 8 8 5 5 4 5 5 4 9 6 9 8 7 9 8
16 16 15 20 18 23 13 18 12 13 15 16 5 7 7 2 7 8 8 7 5 13 9 13 10 6 3 6 7 8 6 7 7 8 10 6 2 1 5 4 3 3 2 3 3 1 4 7 8
18 12 14 14 19 19 14 18 16 16 13 16 8 5 5 9 9 9 9 10 4 10 9 7 8 7 4 2 6 3 7 4 6 5 7 4 3 4 4 3 0 2 3 1 2 3 4 5 7
15 11 18 17 8 20 17 17 16 16 16 13 12 6 8 15 10 6 4 6 7 8 8 7 5 8 3 2 4 3 3 3 2 6 10 10 3 4 5 2 4 4 4 4 2 4 4 5 6
11 13 13 14 16 16 16 19 18 19 15 3 2 7 10 11 11 4 6 2 4 5 9 7 5 9 6 2 1 3 3 3 3 6 10 9 11 6 6 6 2 4 4 6 4 3 4 5 6
9 14 17 18 24 16 8 13 19 10 15 5 7 10 13 7 7 4 4 4 6 2 8 6 8 13 9 4 3 4 4 3 2 4 2 6 4 7 2 1 6 5 5 4 3 3 5 5 6
14 16 20 23 13 13 15 13 9 6 5 5 5 7 9 6 7 5 1 5 3 5 3 2 3 14 11 8 4 5 6 5 7 5 3 9 5 8 6 5 5 6 3 3 4 4 4 5 5
19 17 17 14 14 7 9 13 13 10 12 10 7 9 8 6 9 12 9 8 7 7 4 5 6 13 9 7 5 3 4 4 5 9 6 8 5 8 6 3 5 0 3 4 4 4 4 5 6
9 14 15 8 11 4 5 11 15 13 9 8 4 6 6 4 12 9 8 6 5 7 6 5 6 9 6 5 5 4 6 3 8 7 7 6 6 6 3 5 5 5 4 5 5 4 6 6 4
9 12 14 12 3 3 6 15 17 15 13 9 2 4 3 3 9 9 6 6 6 6 4 2 5 5 1 4 3 4 1 6 8 6 5 6 5 4 4 4 3 5 4 5 5 5 6 6 6
10 13 12 10 13 10 16 19 21 15 12 7 3 4 5 7 10 8 8 6 7 7 6 6 8 5 5 4 3 4 5 5 7 6 4 4 3 4 3 3 2 2 3 4 5 6 7 7 7
10 11 10 7 10 11 16 12 16 11 10 9 8 4 6 10 8 8 9 8 8 8 8 8 8 7 4 9 2 1 1 2 2 4 4 5 4 2 1 2 3 3 3 4 4 6 7 7 9
10 11 10 13 13 14 16 11 11 16 13 15 11 8 8 7 6 9 12 10 8 9 8 7 8 8 9 9 11 8 7 3 2 5 5 4 2 5 0 1 4 4 3 5 6 7 6 7 9
8 11 14 15 13 12 17 11 4 8 10 12 13 10 7 4 8 11 11 5 5 8 9 7 6 5 6 6 7 7 8 8 7 6 5 3 2 3 4 6 5 4 4 5 6 7 8 8 9
6 9 8 6 9 9 10 2 7 13 11 7 6 7 11 6 4 3 3 8 4 2 6 4 5 3 3 5 5 6 6 6 6 4 3 4 3 3 5 5 5 4 5 6 7 7 8 9 9
9 5 6 7 9 13 15 7 3 17 15 12 9 15 17 13 8 12 13 12 15 15 14 11 9 4 3 3 2 2 4 4 6 5 6 5 5 5 4 4 4 6 7 8 8 8 8 10 9
7 4 11 8 12 12 10 9 16 14 16 13 10 11 9 7 8 9 9 9 11 10 10 13 13 11 13 4 2 5 4 4 4 6 4 5 5 5 6 7 7 8 9 9 9 8 9 10 10
7 9 6 4 7 11 10 14 8 11 4 5 5 3 5 5 9 11 7 5 3 5 7 7 6 8 8 13 9 6 5 7 6 4 5 6 6 6 6 7 8 9 9 9 10 9 9 9 9
2 6 10 8 7 8 11 8 4 16 12 10 12 14 12 14 11 10 12 13 14 14 14 6 6 6 5 5 4 7 10 7 4 3 4 5 4 5 7 7 9 11 10 10 9 10 10 9 12
5 10 9 5 8 9 10 12 17 10 16 17 15 15 16 15 15 15 16 15 14 14 15 15 13 11 11 5 7 5 1 4 6 9 7 8 6 4 6 8 9 10 12 11 9 11 8 11 10
Wind_Direction
297 280 223 256 254 233 293 355 2 88 86 67 105 128 139 133 221 337 81 102 112 121 127 120 115 117 119 124 126 127 128 132 131 126 132 134 129 126 119 111 108 108 107 106 106 108 95 83 79
297 301 268 268 254 308 11 331 74 87 76 94 105 124 127 167 262 103 91 106 115 123 137 131 123 121 122 124 128 129 131 136 136 136 139 139 134 134 131 124 119 111 109 110 106 103 95 87 80
264 262 288 237 251 212 215 309 21 77 66 47 93 52 67 105 112 110 122 116 118 131 123 123 126 123 124 126 126 130 135 138 139 139 143 146 143 140 141 138 132 124 113 108 105 100 94 91 90
290 284 236 259 262 63 187 57 346 117 122 338 113 94 68 72 104 122 135 119 123 142 126 134 128 123 124 128 129 133 137 141 141 142 145 144 143 142 146 150 150 139 123 119 118 119 120 133 142
290 259 269 267 262 161 285 87 296 237 142 103 92 102 95 97 98 110 121 129 142 122 128 136 131 132 135 136 138 137 137 140 144 147 149 149 148 153 158 161 165 161 155 149 144 148 152 210 220
293 281 265 261 280 327 212 107 294 295 114 102 239 117 108 126 135 144 138 140 137 125 134 138 133 134 137 140 142 144 146 148 150 150 152 155 156 161 166 170 173 177 179 182 192 230 261 269 273
276 292 291 302 312 319 97 66 337 6 41 32 3 102 130 132 125 111 119 126 131 123 123 142 148 136 133 137 143 147 150 152 153 152 155 156 160 167 170 177 183 194 205 235 262 263 264 269 259
285 294 292 287 300 284 19 356 80 334 47 37 17 34 116 93 128 145 141 143 139 142 145 149 146 158 161 153 151 151 154 153 154 156 159 164 167 172 178 177 193 199 209 222 233 244 249 256 263
304 283 276 274 35 304 353 271 104 59 312 45 39 62 92 137 214 180 152 160 153 158 151 154 155 163 187 158 158 153 158 160 158 164 169 163 193 180 181 202 197 196 206 219 233 243 243 244 249
223 269 265 306 320 278 335 340 345 3 305 171 165 139 143 175 225 246 187 199 163 163 164 152 151 162 188 157 149 163 162 177 189 183 172 210 220 180 195 194 177 192 199 215 228 235 240 252 261
227 227 274 270 296 305 315 317 318 316 300 338 4 132 142 27 348 290 267 299 33 157 104 124 124 134 172 136 165 167 161 176 190 196 168 213 229 169 185 154 176 181 208 230 222 229 226 244 248
199 235 226 270 282 291 304 292 314 306 308 321 57 34 3 344 297 290 266 286 260 82 84 117 126 104 8 114 178 159 151 176 177 196 188 196 208 99 56 67 69 82 101 311 16 236 254 235 247
216 212 255 239 268 286 288 288 275 296 293 303 324 324 308 288 287 285 302 306 4 98 87 66 103 114 117 1 27 77 115 218 169 178 176 124 142 121 85 63 111 178 177 144 278 288 302 306 295
259 211 228 242 235 268 274 271 277 268 280 260 285 298 291 278 258 292 271 291 315 90 103 118 114 106 129 201 112 80 95 109 242 191 175 191 137 124 127 151 232 219 183 175 202 241 240 253 261
279 278 270 254 235 228 257 271 266 268 263 329 343 313 292 275 279 254 310 168 342 93 113 109 107 106 87 287 183 123 153 139 167 276 43 320 133 180 177 186 209 47 37 0 314 307 340 335 325
275 252 256 252 231 214 179 257 267 317 210 147 242 248 251 252 295 241 164 48 5 352 117 167 204 129 139 174 182 193 176 169 179 66 154 194 128 155 118 135 63 36 16 326 328 348 360 350 338
237 253 251 243 239 167 188 244 330 135 171 232 267 264 264 235 209 250 209 114 350 343 47 180 237 141 153 140 217 201 175 173 165 134 71 346 340 69 30 53 72 34 317 343 18 11 2 320 310
248 246 232 254 149 157 267 279 265 214 187 204 226 266 270 284 55 46 15 17 23 2 15 333 309 128 149 149 229 217 132 250 162 124 161 171 77 64 30 35 89 38 343 357 13 341 310 285 293
291 303 305 7 117 169 267 272 278 283 276 259 214 254 272 18 70 43 27 24 26 20 5 303 277 125 128 142 231 172 182 189 86 81 81 86 79 84 74 31 34 19 7 4 343 320 312 294 308
307 278 278 272 298 48 281 275 272 258 259 261 1 337 312 88 82 61 48 44 42 40 11 286 288 76 178 205 223 305 86 129 112 103 87 88 106 96 87 51 8 37 357 330 309 336 328 318 313
262 267 281 351 346 316 260 262 251 258 211 99 97 250 69 85 90 87 72 70 73 64 47 33 15 61 24 55 28 37 68 62 101 110 132 135 114 97 94 62 53 12 338 328 338 314 300 308 316
281 19 350 311 295 288 329 300 285 184 147 151 158 156 157 97 104 108 106 84 79 73 66 53 42 24 38 3 71 22 360 143 81 135 98 137 150 84 133 96 62 44 6 311 314 334 317 305 297
303 4 308 289 278 280 274 259 270 140 178 163 144 160 120 147 140 138 109 97 102 89 76 58 43 31 24 16 23 3 16 90 144 83 106 66 259 219 170 46 53 28 349 322 296 293 316 312 302
318 286 275 259 249 256 255 233 103 89 77 112 146 155 144 138 108 94 93 120 110 151 128 113 89 45 26 19 21 12 16 8 16 24 8 327 350 30 27 43 38 355 300 306 315 294 293 293 294
233 312 313 302 216 246 87 267 301 111 114 88 52 81 141 107 49 343 352 152 130 318 96 108 127 78 66 1 5 1 6 2 337 301 310 350 337 354 7 31 358 313 314 307 302 300 293 285 282
309 345 311 315 329 323 334 308 25 90 82 64 55 62 61 59 52 50 42 28 24 22 12 7 352 309 258 209 247 347 349 328 326 351 9 349 354 321 337 316 325 321 314 310 304 298 296 290 285
4 336 359 316 289 267 292 327 82 95 76 62 57 32 32 38 20 15 17 10 5 357 359 344 347 352 342 320 287 203 204 255 276 317 327 302 298 318 333 321 316 318 305 304 301 294 294 289 291
266 349 317 282 288 293 303 332 347 53 83 117 13 327 282 309 324 352 3 331 334 334 319 37 348 334 345 358 337 304 215 214 206 226 251 264 272 285 305 316 312 300 301 296 288 290 291 304 302
260 301 318 314 327 295 297 280 302 11 8 11 347 345 10 18 11 359 338 343 347 343 335 292 280 280 280 259 287 307 333 325 296 272 303 298 282 289 292 299 307 301 298 291 292 292 293 305 296
315 296 303 309 307 309 310 289 281 324 352 342 334 7 8 3 348 349 348 341 332 326 326 342 345 344 336 18 36 15 335 346 352 323 333 312 304 299 296 297 289 303 303 296 307 301 311 306 312